[[{"header":{"parameterUnit":"m.s-1","parameterCategory":1,"la1":30.2992,"la2":30.254,"lo1":-89.0895,"lo2":-89.0443,"dy":0.0025,"dx":0.0025,"nx":19,"ny":19,"refTime":"2026-04-30T03:00:00:Z","depth":0,"parameterNumber":2,"parameterNumberName":"U-component_of_WINDS"},"data":[0,0,0,-4.1322,-4.1322,-4.1289,-4.1289,-4.1296,-4.1297,0,0,0,0,0,0,0,0,0,0,0,-4.1358,-4.1359,-4.1322,-4.1322,-4.1289,-4.1289,-4.1296,-4.1297,0,0,0,0,0,0,0,0,0,0,0,-4.1358,-4.1359,-4.136,-4.1322,-4.129,-4.1289,-4.1296,-4.1304,0,0,0,0,0,0,0,0,0,0,-4.1327,-4.1387,-4.1359,-4.136,-4.1322,-4.129,-4.1289,-4.1303,-4.1303,-4.1331,0,-4.1361,0,-4.133,-4.13,-4.13,0,0,0,-4.1302,-4.1387,-4.1354,-4.136,-4.1322,-4.129,-4.1298,-4.1303,-4.1303,-4.1331,-4.1361,-4.136,-4.133,-4.1301,-4.1301,-4.1525,-4.1527,0,0,-4.1303,-4.1367,-4.1354,-4.1355,-4.1361,-4.1299,-4.1298,-4.1302,-4.1339,-4.1361,-4.1359,-4.133,-4.1301,-4.1301,-4.1523,-4.1526,0,0,0,-4.1322,-4.137,-4.1335,-4.1356,-4.1347,-4.1299,-4.1297,-4.1339,-4.1322,-4.1359,-4.133,-4.1301,-4.1302,-4.1521,-4.1524,-4.1684,0,0,0,-4.1322,-4.138,-4.1337,-4.1376,-4.1347,-4.1342,-4.1335,-4.1322,-4.132,-4.133,-4.1301,-4.1302,-4.1519,-4.1523,-4.1674,-4.1748,0,0,0,-4.1351,-4.1383,-4.1388,-4.138,-4.1368,-4.134,-4.1323,-4.132,-4.1304,-4.13,-4.1302,-4.1517,-4.1522,-4.1666,-4.1734,-4.1826,0,0,0,-4.1401,-4.153,-4.1392,-4.1525,-4.1369,-4.1439,-4.1322,-4.1372,-4.1388,-4.1301,-4.1519,-4.1524,-4.1663,-4.1726,-4.1817,-4.1913,-4.1959,0,0,-4.16,-4.1557,-4.163,-4.1505,-4.1617,-4.1439,-4.1574,-4.1529,-4.1471,-4.1511,-4.1516,-4.1677,-4.1733,-4.1824,-4.2198,-4.2235,0,0,0,-4.1715,-4.1769,-4.1784,-4.1802,-4.1771,-4.1751,-4.1678,-4.1662,-4.1692,-4.1504,-4.1734,-4.1765,-4.1816,-4.1858,-4.189,-4.1929,-4.1547,-4.1546,-4.1546,-4.2087,-4.2006,-4.2122,-4.2038,-4.2058,-4.1983,-4.1992,-4.1957,-4.1869,-4.1926,-4.1936,-4.2173,-4.2226,-4.2249,-4.2291,-4.1982,-4.1982,-4.1983,-4.1983,-4.237,-4.2433,-4.2315,-4.2385,-4.23,-4.2359,-4.2294,-4.223,-4.2274,-4.2158,-4.2198,-4.2078,-4.2292,-4.2325,-4.1994,-4.1992,-4.1991,-4.199,-4.1989,-4.2603,-4.2619,-4.2598,-4.2617,-4.2642,-4.2553,-4.2601,-4.2522,-4.2448,-4.2488,-4.2491,-4.2488,-4.2475,-4.2496,-4.2497,-4.2497,-4.2498,-4.2499,-4.2499,-4.2853,-4.2823,-4.2872,-4.2852,-4.2854,-4.2848,-4.2777,-4.2778,-4.2759,-4.2697,-4.2697,-4.2605,-4.2329,-4.226,-4.2512,-4.2509,-4.2508,-4.2507,-4.2506,-4.3167,-4.3084,-4.316,-4.3162,-4.3133,-4.3165,-4.3064,-4.3074,-4.3063,-4.309,-4.299,-4.2799,-4.2749,-4.2723,-4.2666,-4.3007,-4.3007,-4.3007,-4.3007,-4.3363,-4.333,-4.339,-4.34,-4.3401,-4.3319,-4.341,-4.3358,-4.3291,-4.3281,-4.322,-4.3139,-4.3116,-4.3079,-4.3046,-4.2991,-4.3407,-4.3407,-4.3408,-4.3551,-4.3516,-4.3606,-4.3539,-4.3511,-4.349,-4.3574,-4.3592,-4.3499,-4.3422,-4.327,-4.3254,-4.312,-4.3081,-4.2998,-4.2948,-4.2846,0,0]},{"header":{"parameterUnit":"m.s-1","parameterCategory":1,"la1":30.2992,"la2":30.254,"lo1":-89.0895,"lo2":-89.0443,"dy":0.0025,"dx":0.0025,"nx":19,"ny":19,"refTime":"2026-04-30T03:00:00:Z","depth":0,"parameterNumber":3,"parameterNumberName":"V-component_of_WINDS"},"data":[0,0,0,2.9075,2.9075,2.912,2.912,2.9154,2.9154,0,0,0,0,0,0,0,0,0,0,0,2.9049,2.9049,2.9075,2.9075,2.912,2.912,2.9154,2.9154,0,0,0,0,0,0,0,0,0,0,0,2.9049,2.9049,2.9049,2.9075,2.912,2.912,2.9154,2.9128,0,0,0,0,0,0,0,0,0,0,2.9088,2.9053,2.9049,2.9049,2.9076,2.912,2.912,2.9127,2.9129,2.9124,0,2.9118,0,2.9137,2.9155,2.9155,0,0,0,2.9084,2.9051,2.9075,2.9049,2.9076,2.9119,2.9102,2.9129,2.9131,2.9128,2.9119,2.9121,2.9137,2.9155,2.9155,2.9104,2.9104,0,0,2.9081,2.905,2.9073,2.9076,2.907,2.9101,2.9103,2.9131,2.9118,2.9119,2.9122,2.9138,2.9155,2.9155,2.9105,2.9104,0,0,0,2.9069,2.9047,2.9071,2.9074,2.9084,2.9102,2.9105,2.9117,2.9128,2.9123,2.9138,2.9155,2.9155,2.9106,2.9105,2.9044,0,0,0,2.9067,2.904,2.907,2.9051,2.9083,2.9101,2.909,2.9126,2.913,2.9138,2.9155,2.9155,2.9107,2.9105,2.9047,2.9018,0,0,0,2.905,2.9039,2.9041,2.9049,2.9067,2.9102,2.9114,2.9127,2.9139,2.9155,2.9155,2.9107,2.9105,2.905,2.9023,2.8996,0,0,0,2.9022,2.8984,2.904,2.9003,2.9067,2.9065,2.9114,2.9114,2.9121,2.9155,2.9106,2.9105,2.9051,2.9026,2.8999,2.8965,2.8949,0,0,2.8956,2.8975,2.8956,2.9008,2.8988,2.9061,2.9032,2.9066,2.9095,2.9099,2.9099,2.9046,2.9024,2.8996,2.8874,2.8861,0,0,0,2.8924,2.891,2.8912,2.8919,2.8947,2.8968,2.9011,2.9025,2.903,2.9092,2.9031,2.9018,2.9003,2.8989,2.8978,2.8967,2.9098,2.9098,2.9098,2.8782,2.8826,2.8798,2.8846,2.8852,2.89,2.8908,2.8934,2.8972,2.8957,2.8957,2.8878,2.886,2.8852,2.884,2.8946,2.8945,2.8945,2.8945,2.8688,2.8674,2.8732,2.8725,2.8771,2.8765,2.881,2.8838,2.8838,2.8881,2.887,2.891,2.8837,2.8828,2.8941,2.8942,2.8942,2.8942,2.8943,2.8597,2.8598,2.8618,2.8635,2.8643,2.8694,2.8693,2.8734,2.8772,2.8762,2.8767,2.8768,2.8772,2.8762,2.8762,2.8762,2.8762,2.8761,2.8761,2.8493,2.8519,2.8514,2.8544,2.8556,2.8576,2.8626,2.8637,2.866,2.869,2.8691,2.873,2.8823,2.8844,2.8757,2.8758,2.8758,2.8759,2.8759,2.8376,2.8411,2.8403,2.8415,2.8455,2.8461,2.8516,2.8537,2.8553,2.8551,2.8595,2.8658,2.8678,2.8688,2.8705,2.8587,2.8587,2.8587,2.8587,2.8298,2.8315,2.8318,2.8335,2.8356,2.8406,2.8396,2.8435,2.8481,2.8493,2.8518,2.8546,2.8553,2.8569,2.8581,2.8598,2.8455,2.8455,2.8455,2.8228,2.825,2.8232,2.8282,2.8318,2.8347,2.8338,2.8353,2.8412,2.845,2.8504,2.8509,2.8555,2.8568,2.8602,2.8619,2.8651,0,0]}]]